[[{"header":{"parameterUnit":"m.s-1","parameterCategory":1,"la1":30.2991,"la2":30.254,"lo1":-89.0895,"lo2":-89.0444,"dy":0.0017,"dx":0.0017,"nx":28,"ny":28,"refTime":"2024-05-14T03:00:00:Z","depth":0,"parameterNumber":2,"parameterNumberName":"U-component_of_WINDS"},"data":[0,0,0,0,0,0,0,0,0,0,0,0,0,0,0,0,0,0,0,0,0,0,0,0,0,0,0,0,0,0,0,0,0,0,0,0,0,0,0,0,0,0,0,0,0,0,0,0,0,0,0,0,0,0,0,0,0,0,3.4867,3.4868,0,3.4953,3.4954,3.4955,3.4979,3.4979,3.4978,3.4978,3.507,3.5073,3.5076,0,0,0,0,0,0,0,0,0,0,0,0,0,3.473,3.4732,3.4867,3.4868,3.4869,3.4953,3.4954,3.4955,3.4979,3.4979,3.4978,3.4977,3.5069,3.5072,3.5076,0,0,0,0,0,0,0,0,0,0,0,0,0,3.48,3.4733,3.4867,3.4891,3.4894,3.4952,3.4954,3.4955,3.4979,3.4979,3.4978,3.4977,3.5068,3.5072,3.5076,3.5118,0,0,3.509,3.5091,0,0,0,0,0,0,0,0,3.4796,3.4805,3.4887,3.489,3.4893,3.4954,3.4939,3.501,3.498,3.4947,3.4978,3.4977,3.5032,3.504,3.5057,3.5122,3.5126,3.509,3.5093,3.5094,3.5096,0,0,0,0,0,0,0,3.4791,3.4801,3.4901,3.4888,3.4892,3.49,3.4909,3.4953,3.4993,3.495,3.4952,3.4961,3.5034,3.5053,3.506,3.5127,3.509,3.5094,3.5096,3.5098,3.5233,3.5234,0,0,0,0,0,0,3.4781,3.4797,3.4898,3.4904,3.4841,3.4903,3.4913,3.4936,3.4992,3.5,3.4962,3.4962,3.5046,3.5055,3.5063,3.5117,3.5094,3.5098,3.5101,3.5232,3.5233,3.5234,0,0,0,0,0,0,3.4778,3.479,3.4895,3.4851,3.4865,3.4906,3.4931,3.4938,3.4957,3.5002,3.5009,3.4974,3.5046,3.5057,3.5104,3.512,3.51,3.5104,3.5231,3.5233,3.5234,3.5224,0,0,0,0,0,0,3.4774,3.4789,3.4803,3.4851,3.4867,3.4933,3.4932,3.494,3.4964,3.4965,3.5015,3.5022,3.5046,3.5098,3.5109,3.5126,3.5108,3.523,3.5232,3.5233,3.5223,3.5225,3.5226,0,0,0,0,0,3.4769,3.4797,3.4804,3.4816,3.4886,3.4934,3.4943,3.4969,3.4965,3.4981,3.501,3.5021,3.5117,3.5102,3.5115,3.5134,3.5229,3.5231,3.5233,3.5222,3.5224,3.5226,0,0,0,0,0,0,3.4752,3.4804,3.4812,3.4856,3.489,3.4938,3.4959,3.497,3.5007,3.5006,3.5038,3.5049,3.5095,3.5119,3.5102,3.5178,3.5173,3.5178,3.5161,3.5163,3.5165,3.5158,3.5111,0,0,0,0,0,3.4753,3.4785,3.483,3.4865,3.4882,3.4917,3.4939,3.4956,3.4993,3.5008,3.504,3.5077,3.5116,3.5141,3.5179,3.5227,3.5239,3.5246,3.5248,3.5249,3.5253,3.5283,3.5287,3.5242,3.5242,3.5242,0,0,3.4756,3.4788,3.4807,3.4862,3.4891,3.4926,3.4929,3.4966,3.4993,3.5014,3.506,3.5086,3.5129,3.5177,3.52,3.5199,3.5268,3.5252,3.5252,3.5256,3.5285,3.529,3.5293,3.5243,3.5243,3.5243,0,0,3.4779,3.4806,3.4839,3.4868,3.491,3.4934,3.4942,3.4988,3.5006,3.5053,3.507,3.5104,3.5169,3.52,3.5224,3.5262,3.5274,3.5273,3.5283,3.5311,3.5315,3.5318,3.5333,3.5338,3.5277,3.5277,3.5277,0,3.4778,3.483,3.4855,3.4891,3.4916,3.4936,3.4971,3.4998,3.5051,3.5069,3.5066,3.515,3.5181,3.5238,3.5247,3.5265,3.5277,3.5268,3.5312,3.5315,3.5319,3.5334,3.5339,3.5277,3.5277,3.5277,3.5277,0,3.4827,3.4863,3.4885,3.4935,3.4962,3.4998,3.5031,3.5056,3.5071,3.5095,3.5145,3.5182,3.5229,3.5244,3.5259,3.5304,3.5302,3.5305,3.5301,3.5322,3.5337,3.5343,3.5277,3.5277,3.5277,3.5277,0,0,3.4841,3.4906,3.4914,3.4938,3.4987,3.5016,3.5054,3.5099,3.512,3.5157,3.5191,3.5246,3.525,3.5278,3.5297,3.5322,3.5352,3.5323,3.5324,3.5328,3.5406,3.5403,3.5409,3.536,3.5361,3.5362,3.5402,0,3.4872,3.4938,3.4963,3.5018,3.5052,3.5073,3.5106,3.5141,3.5165,3.52,3.5228,3.5268,3.5269,3.5286,3.5311,3.5342,3.5368,3.534,3.5393,3.5395,3.5382,3.5416,3.5414,3.545,3.5408,3.5409,3.541,0,3.4916,3.4953,3.5011,3.5058,3.5073,3.5102,3.5146,3.5179,3.522,3.5236,3.5268,3.5286,3.5328,3.5321,3.5381,3.5362,3.5385,3.5404,3.5406,3.5413,3.5404,3.5425,3.5462,3.5468,3.5419,3.5418,3.5417,0,3.4923,3.4987,3.503,3.505,3.5105,3.5125,3.515,3.519,3.5216,3.5255,3.5273,3.5317,3.5342,3.5376,3.5407,3.5398,3.5465,3.546,3.5482,3.5481,3.5495,3.5494,3.5537,3.5508,3.5508,3.5508,3.5508,0,3.4955,3.499,3.5034,3.5061,3.5101,3.5131,3.5171,3.5197,3.5233,3.5267,3.5288,3.5319,3.5357,3.5394,3.5418,3.5466,3.5476,3.5492,3.5499,3.5491,3.5489,3.5507,3.5506,3.551,3.5509,3.5509,3.5509,0,3.4969,3.5,3.5049,3.5097,3.511,3.5138,3.5181,3.5209,3.5235,3.5277,3.5289,3.533,3.5376,3.5409,3.5468,3.5484,3.5535,3.5541,3.5521,3.5524,3.5544,3.5543,3.5602,3.5612,3.5575,3.5575,3.5576,0,3.4988,3.5016,3.5067,3.5091,3.5115,3.5152,3.5179,3.521,3.5237,3.5287,3.531,3.5356,3.5395,3.5466,3.5503,3.5548,3.5556,3.5574,3.5563,3.5556,3.5558,3.5557,3.5561,3.5576,3.5576,3.5576,3.5576,0,3.5019,3.5033,3.507,3.5113,3.5144,3.518,3.5216,3.5234,3.5272,3.5302,3.5348,3.5378,3.5438,3.5484,3.5534,3.5561,3.5576,3.5579,3.5587,3.558,3.5568,3.5576,3.5526,3.5578,3.5578,3.5578,3.5578,3.5578,3.5038,3.5064,3.5104,3.5145,3.5176,3.5209,3.5238,3.5268,3.5306,3.5356,3.5373,3.5421,3.5464,3.5531,3.5559,3.5599,3.5599,3.561,3.5613,3.5615,3.5615,3.5561,3.5608,3.5608,3.5608,3.5608,3.5608,0,3.5071,3.5099,3.5136,3.5185,3.5218,3.5228,3.5269,3.5296,3.5338,3.5376,3.5413,3.5467,3.5513,3.5553,3.5601,3.5625,3.5634,3.5637,3.5636,3.5643,3.5612,3.5601,3.563,3.563,3.563,3.563,3.563,3.563,3.5093,3.5138,3.5157,3.5218,3.5246,3.5292,3.5315,3.5347,3.5377,3.5436,3.5473,3.5499,3.5539,3.559,3.5633,3.5644,3.5662,3.5664,3.5677,3.5647,3.5645,3.5642,3.5632,3.5667,3.5667,3.5705,3.5705,3.5705]},{"header":{"parameterUnit":"m.s-1","parameterCategory":1,"la1":30.2991,"la2":30.254,"lo1":-89.0895,"lo2":-89.0444,"dy":0.0017,"dx":0.0017,"nx":28,"ny":28,"refTime":"2024-05-14T03:00:00:Z","depth":0,"parameterNumber":3,"parameterNumberName":"V-component_of_WINDS"},"data":[0,0,0,0,0,0,0,0,0,0,0,0,0,0,0,0,0,0,0,0,0,0,0,0,0,0,0,0,0,0,0,0,0,0,0,0,0,0,0,0,0,0,0,0,0,0,0,0,0,0,0,0,0,0,0,0,0,0,0.5334,0.5335,0,0.5396,0.5397,0.5398,0.5361,0.536,0.5358,0.5356,0.542,0.5424,0.5427,0,0,0,0,0,0,0,0,0,0,0,0,0,0.5184,0.5187,0.5334,0.5335,0.5336,0.5396,0.5397,0.5398,0.5362,0.536,0.5357,0.5355,0.5419,0.5423,0.5427,0,0,0,0,0,0,0,0,0,0,0,0,0,0.5248,0.5188,0.5334,0.5325,0.5325,0.5396,0.5397,0.5398,0.5362,0.536,0.5357,0.5354,0.5418,0.5423,0.5428,0.5511,0,0,0.5443,0.5445,0,0,0,0,0,0,0,0,0.5244,0.5253,0.5326,0.5326,0.5326,0.5368,0.5367,0.5436,0.5363,0.5348,0.5356,0.5353,0.5405,0.5411,0.5429,0.5514,0.5517,0.5444,0.5447,0.5449,0.545,0,0,0,0,0,0,0,0.524,0.525,0.5359,0.5327,0.5327,0.5317,0.5324,0.538,0.5391,0.5349,0.5347,0.5354,0.5405,0.5424,0.543,0.5518,0.5443,0.5448,0.5451,0.5453,0.5672,0.5675,0,0,0,0,0,0,0.5236,0.5247,0.5357,0.5361,0.5278,0.5322,0.5329,0.5357,0.539,0.5392,0.5357,0.5353,0.5417,0.5424,0.5432,0.5529,0.5449,0.5453,0.5456,0.5669,0.5673,0.5676,0,0,0,0,0,0,0.5233,0.5246,0.5354,0.5303,0.5316,0.5328,0.536,0.536,0.5379,0.5396,0.5397,0.5374,0.5415,0.5425,0.5491,0.5531,0.5456,0.546,0.5666,0.567,0.5674,0.5727,0,0,0,0,0,0,0.5229,0.5245,0.5278,0.5304,0.5319,0.5413,0.5362,0.5363,0.5388,0.5383,0.5413,0.5415,0.5413,0.5484,0.5496,0.5537,0.5464,0.5662,0.5668,0.5673,0.5722,0.5732,0.5742,0,0,0,0,0,0.5224,0.5291,0.528,0.5293,0.536,0.5416,0.5424,0.5421,0.5391,0.5423,0.5433,0.5414,0.5525,0.5491,0.5504,0.5547,0.566,0.5666,0.5672,0.5717,0.573,0.5741,0,0,0,0,0,0,0.527,0.5295,0.5282,0.536,0.5386,0.5409,0.545,0.5435,0.5471,0.5465,0.5459,0.5466,0.5534,0.5548,0.5509,0.5628,0.5588,0.5597,0.5617,0.563,0.564,0.5634,0.5468,0,0,0,0,0,0.529,0.5333,0.5352,0.5419,0.5432,0.5439,0.5463,0.5458,0.5485,0.5496,0.5511,0.5537,0.5577,0.5605,0.5643,0.5723,0.5728,0.5759,0.5769,0.5777,0.5785,0.5826,0.5839,0.5696,0.5696,0.5696,0,0,0.533,0.5349,0.5377,0.5429,0.5448,0.5492,0.5449,0.5498,0.553,0.5503,0.5566,0.5578,0.5607,0.5679,0.5712,0.5693,0.5826,0.5786,0.5792,0.5795,0.5834,0.5847,0.5859,0.5701,0.57,0.5699,0,0,0.5426,0.5446,0.5502,0.5522,0.5551,0.5554,0.5568,0.5593,0.56,0.5662,0.5642,0.568,0.5751,0.5771,0.5791,0.5891,0.5874,0.5904,0.5956,0.5996,0.6007,0.6017,0.605,0.6063,0.5912,0.5912,0.5912,0,0.5473,0.5539,0.5533,0.5583,0.5605,0.5582,0.5638,0.5658,0.5698,0.5714,0.5691,0.5777,0.5795,0.5871,0.5895,0.5913,0.5926,0.5901,0.6006,0.6016,0.6025,0.6057,0.6069,0.5916,0.5915,0.5915,0.5914,0,0.5593,0.5639,0.5681,0.5719,0.5747,0.58,0.5801,0.5829,0.5821,0.5827,0.5889,0.591,0.5951,0.5968,0.5962,0.6043,0.6029,0.6006,0.5965,0.6042,0.6071,0.6084,0.592,0.5919,0.5918,0.5917,0,0,0.5722,0.5754,0.577,0.5785,0.5815,0.5849,0.59,0.5939,0.5962,0.5991,0.6032,0.6091,0.6069,0.6091,0.6086,0.6121,0.6196,0.6094,0.6094,0.611,0.6283,0.6299,0.6313,0.6185,0.6187,0.6189,0.628,0,0.5818,0.5906,0.5901,0.5984,0.6025,0.6002,0.6046,0.6068,0.6074,0.6109,0.6115,0.6156,0.6126,0.6138,0.6172,0.618,0.6231,0.6174,0.6222,0.6224,0.6214,0.6329,0.6347,0.6432,0.6292,0.6294,0.6295,0,0.5942,0.5973,0.6059,0.6079,0.6096,0.6136,0.6169,0.6204,0.6227,0.6229,0.6253,0.6241,0.6291,0.6249,0.6317,0.6278,0.6297,0.6304,0.6307,0.631,0.6263,0.6334,0.6459,0.6471,0.6314,0.6312,0.6311,0,0.6024,0.6087,0.6146,0.6161,0.6187,0.6214,0.6226,0.6247,0.627,0.63,0.6314,0.6349,0.6368,0.6395,0.6393,0.6363,0.646,0.6419,0.6462,0.6462,0.6483,0.6481,0.661,0.6498,0.6498,0.6497,0.6497,0,0.6131,0.6184,0.6183,0.6219,0.6277,0.627,0.6328,0.6337,0.6355,0.6392,0.6375,0.6409,0.6405,0.6439,0.6438,0.6492,0.6502,0.6503,0.6502,0.6504,0.6504,0.6516,0.6509,0.6501,0.65,0.6499,0.6499,0,0.6232,0.6234,0.6296,0.6315,0.632,0.6362,0.6377,0.6411,0.6415,0.6461,0.6471,0.6477,0.6516,0.6517,0.6562,0.6561,0.6627,0.662,0.6619,0.6617,0.6658,0.6654,0.6799,0.6817,0.6695,0.6696,0.6697,0,0.63,0.634,0.6362,0.6384,0.6398,0.6435,0.6458,0.6452,0.6476,0.6504,0.6534,0.6571,0.6601,0.6664,0.6672,0.6706,0.6698,0.6747,0.6703,0.6703,0.6696,0.6693,0.6696,0.6755,0.6757,0.6758,0.6759,0,0.6418,0.6416,0.6449,0.6482,0.6508,0.6534,0.6557,0.6577,0.6574,0.6601,0.664,0.6663,0.6708,0.6745,0.6777,0.6788,0.6772,0.6772,0.6783,0.6785,0.6782,0.6781,0.664,0.6769,0.6768,0.6767,0.6766,0.6766,0.6503,0.6536,0.6556,0.6592,0.6609,0.6631,0.6662,0.6669,0.6701,0.6737,0.6732,0.6775,0.6795,0.6836,0.685,0.6883,0.6866,0.6883,0.6887,0.6891,0.6894,0.6777,0.6889,0.6889,0.6889,0.6889,0.6888,0,0.6619,0.663,0.6663,0.6695,0.6723,0.6706,0.673,0.6754,0.6792,0.6812,0.6841,0.6884,0.6919,0.6929,0.6962,0.6986,0.6979,0.6995,0.6992,0.6994,0.6909,0.6895,0.7,0.6999,0.6999,0.6999,0.6999,0.6999,0.6682,0.6736,0.6736,0.6798,0.6808,0.685,0.6865,0.6884,0.6899,0.6949,0.6977,0.6983,0.6998,0.7032,0.7062,0.7064,0.7076,0.7094,0.7092,0.7012,0.7001,0.699,0.6977,0.7097,0.7097,0.7175,0.7175,0.7176]}]]